Time,TemperatureF,DewpointF,PressureIn,WindDirection,WindDirectionDegrees,WindSpeedMPH,WindSpeedGustMPH,Humidity,HourlyPrecipIn,Conditions,Clouds,dailyrainin,SoftwareType,DateUTC
2013-07-05 00:00:00,67.3,47.5,28.95,WSW,247,1.6,-999.0,48,0.00,,,0.00,Rainwise IP-100,2013-07-05 07:00:00,
2013-07-05 00:05:00,66.7,47.0,28.95,WSW,247,1.4,-999.0,48,0.00,,,0.00,Rainwise IP-100,2013-07-05 07:05:00,
2013-07-05 00:10:00,66.5,47.0,28.95,WSW,247,0.0,-999.0,49,0.00,,,0.00,Rainwise IP-100,2013-07-05 07:10:00,
2013-07-05 00:15:00,66.6,47.0,28.95,WSW,247,0.0,-999.0,49,0.00,,,0.00,Rainwise IP-100,2013-07-05 07:15:00,
2013-07-05 00:20:00,66.5,47.0,28.95,WSW,247,0.0,-999.0,49,0.00,,,0.00,Rainwise IP-100,2013-07-05 07:20:00,
2013-07-05 00:25:00,66.1,47.0,28.95,WSW,247,1.2,-999.0,50,0.00,,,0.00,Rainwise IP-100,2013-07-05 07:25:00,
2013-07-05 00:30:00,65.9,47.5,28.95,WSW,247,0.0,-999.0,51,0.00,,,0.00,Rainwise IP-100,2013-07-05 07:30:00,
2013-07-05 00:35:00,65.9,47.0,28.95,WSW,247,0.0,-999.0,50,0.00,,,0.00,Rainwise IP-100,2013-07-05 07:35:00,
2013-07-05 00:40:00,65.7,46.0,28.95,WSW,247,2.1,-999.0,49,0.00,,,0.00,Rainwise IP-100,2013-07-05 07:40:00,
2013-07-05 00:45:00,65.0,46.0,28.95,WSW,247,1.9,-999.0,50,0.00,,,0.00,Rainwise IP-100,2013-07-05 07:45:00,
2013-07-05 00:50:00,64.7,46.0,28.95,WSW,247,0.0,-999.0,51,0.00,,,0.00,Rainwise IP-100,2013-07-05 07:50:00,
2013-07-05 00:55:00,64.8,47.0,28.95,WSW,247,0.0,-999.0,51,0.00,,,0.00,Rainwise IP-100,2013-07-05 07:55:00,
2013-07-05 01:00:00,64.7,46.0,28.95,WSW,247,0.0,-999.0,50,0.00,,,0.00,Rainwise IP-100,2013-07-05 08:00:00,
2013-07-05 01:05:00,64.3,46.0,28.95,WSW,247,1.2,-999.0,51,0.00,,,0.00,Rainwise IP-100,2013-07-05 08:05:00,
2013-07-05 01:10:00,63.8,46.0,28.95,WSW,247,2.1,-999.0,52,0.00,,,0.00,Rainwise IP-100,2013-07-05 08:10:00,
2013-07-05 01:15:00,63.3,46.0,28.95,WSW,247,0.0,-999.0,53,0.00,,,0.00,Rainwise IP-100,2013-07-05 08:15:00,
2013-07-05 01:20:00,62.9,46.0,28.95,WSW,247,1.9,-999.0,54,0.00,,,0.00,Rainwise IP-100,2013-07-05 08:20:00,
2013-07-05 01:25:00,62.7,46.0,28.95,WSW,247,0.0,-999.0,54,0.00,,,0.00,Rainwise IP-100,2013-07-05 08:25:00,
2013-07-05 01:30:00,62.9,47.0,28.95,SSE,157,0.0,-999.0,55,0.00,,,0.00,Rainwise IP-100,2013-07-05 08:30:00,
2013-07-05 01:35:00,63.1,46.0,28.95,ESE,112,0.0,-999.0,54,0.00,,,0.00,Rainwise IP-100,2013-07-05 08:35:00,
2013-07-05 01:40:00,62.9,46.0,28.96,SSW,202,0.0,-999.0,54,0.00,,,0.00,Rainwise IP-100,2013-07-05 08:40:00,
2013-07-05 01:45:00,62.3,46.0,28.95,SSW,202,0.0,-999.0,54,0.00,,,0.00,Rainwise IP-100,2013-07-05 08:45:00,
2013-07-05 01:50:00,61.9,46.0,28.95,SSW,202,1.2,-999.0,55,0.00,,,0.00,Rainwise IP-100,2013-07-05 08:50:00,
2013-07-05 01:55:00,61.6,46.0,28.95,SSW,202,0.0,-999.0,56,0.00,,,0.00,Rainwise IP-100,2013-07-05 08:55:00,
2013-07-05 02:00:00,61.2,46.0,28.95,SSW,202,0.0,-999.0,57,0.00,,,0.00,Rainwise IP-100,2013-07-05 09:00:00,
2013-07-05 02:05:00,61.1,46.0,28.95,SSW,202,0.0,-999.0,58,0.00,,,0.00,Rainwise IP-100,2013-07-05 09:05:00,
2013-07-05 02:10:00,61.0,46.0,28.94,WSW,247,1.2,-999.0,58,0.00,,,0.00,Rainwise IP-100,2013-07-05 09:10:00,
2013-07-05 02:15:00,60.9,46.0,28.94,WSW,247,0.0,-999.0,58,0.00,,,0.00,Rainwise IP-100,2013-07-05 09:15:00,
2013-07-05 02:20:00,61.0,46.0,28.94,WSW,247,0.0,-999.0,58,0.00,,,0.00,Rainwise IP-100,2013-07-05 09:20:00,
2013-07-05 02:25:00,60.9,46.0,28.95,WSW,247,0.0,-999.0,58,0.00,,,0.00,Rainwise IP-100,2013-07-05 09:25:00,
2013-07-05 02:30:00,60.6,46.0,28.94,SSW,202,0.0,-999.0,59,0.00,,,0.00,Rainwise IP-100,2013-07-05 09:30:00,
2013-07-05 02:35:00,60.2,47.0,28.94,SSW,202,0.0,-999.0,61,0.00,,,0.00,Rainwise IP-100,2013-07-05 09:35:00,
2013-07-05 02:40:00,59.8,47.0,28.94,SSW,202,0.0,-999.0,61,0.00,,,0.00,Rainwise IP-100,2013-07-05 09:40:00,
2013-07-05 02:45:00,59.4,47.0,28.94,SSW,202,0.0,-999.0,62,0.00,,,0.00,Rainwise IP-100,2013-07-05 09:45:00,
2013-07-05 02:50:00,59.1,47.0,28.95,SSW,202,0.0,-999.0,63,0.00,,,0.00,Rainwise IP-100,2013-07-05 09:50:00,
2013-07-05 02:55:00,58.8,47.0,28.94,WSW,247,2.6,-999.0,64,0.00,,,0.00,Rainwise IP-100,2013-07-05 09:55:00,
2013-07-05 03:00:00,58.4,46.0,28.94,WSW,247,2.3,-999.0,64,0.00,,,0.00,Rainwise IP-100,2013-07-05 10:00:00,
2013-07-05 03:05:00,58.3,47.0,28.94,WSW,247,0.0,-999.0,65,0.00,,,0.00,Rainwise IP-100,2013-07-05 10:05:00,
2013-07-05 03:10:00,58.5,47.5,28.94,WSW,247,0.0,-999.0,65,0.00,,,0.00,Rainwise IP-100,2013-07-05 10:10:00,
2013-07-05 03:15:00,58.4,47.0,28.94,WSW,247,0.0,-999.0,65,0.00,,,0.00,Rainwise IP-100,2013-07-05 10:15:00,
2013-07-05 03:20:00,58.2,47.0,28.94,WSW,247,0.0,-999.0,65,0.00,,,0.00,Rainwise IP-100,2013-07-05 10:20:00,
2013-07-05 03:25:00,58.0,47.0,28.94,WSW,247,1.9,-999.0,65,0.00,,,0.00,Rainwise IP-100,2013-07-05 10:25:00,
2013-07-05 03:30:00,58.0,47.0,28.94,WSW,247,0.0,-999.0,65,0.00,,,0.00,Rainwise IP-100,2013-07-05 10:30:00,
2013-07-05 03:35:00,58.2,46.0,28.94,WSW,247,2.1,-999.0,64,0.00,,,0.00,Rainwise IP-100,2013-07-05 10:35:00,
2013-07-05 03:40:00,58.1,47.0,28.94,WSW,247,0.0,-999.0,65,0.00,,,0.00,Rainwise IP-100,2013-07-05 10:40:00,
2013-07-05 03:45:00,58.0,47.0,28.94,WSW,247,0.0,-999.0,66,0.00,,,0.00,Rainwise IP-100,2013-07-05 10:45:00,
2013-07-05 03:50:00,57.9,47.0,28.94,WSW,247,0.0,-999.0,66,0.00,,,0.00,Rainwise IP-100,2013-07-05 10:50:00,
2013-07-05 03:55:00,57.5,47.0,28.94,WSW,247,0.0,-999.0,66,0.00,,,0.00,Rainwise IP-100,2013-07-05 10:55:00,
2013-07-05 04:00:00,57.1,46.0,28.94,WSW,247,0.0,-999.0,67,0.00,,,0.00,Rainwise IP-100,2013-07-05 11:00:00,
2013-07-05 04:05:00,56.9,47.0,28.94,WSW,247,0.0,-999.0,68,0.00,,,0.00,Rainwise IP-100,2013-07-05 11:05:00,
2013-07-05 04:10:00,56.9,47.0,28.94,WSW,247,0.0,-999.0,68,0.00,,,0.00,Rainwise IP-100,2013-07-05 11:10:00,
2013-07-05 04:15:00,56.6,46.0,28.94,WSW,247,0.0,-999.0,68,0.00,,,0.00,Rainwise IP-100,2013-07-05 11:15:00,
2013-07-05 04:20:00,56.3,46.0,28.94,WSW,247,0.0,-999.0,68,0.00,,,0.00,Rainwise IP-100,2013-07-05 11:20:00,
2013-07-05 04:25:00,56.3,46.0,28.94,WSW,247,2.3,-999.0,67,0.00,,,0.00,Rainwise IP-100,2013-07-05 11:25:00,
2013-07-05 04:30:00,56.3,46.0,28.94,WSW,247,1.9,-999.0,67,0.00,,,0.00,Rainwise IP-100,2013-07-05 11:30:00,
2013-07-05 04:35:00,56.2,45.0,28.94,WSW,247,1.2,-999.0,67,0.00,,,0.00,Rainwise IP-100,2013-07-05 11:35:00,
2013-07-05 04:40:00,56.1,46.0,28.94,WSW,247,0.0,-999.0,68,0.00,,,0.00,Rainwise IP-100,2013-07-05 11:40:00,
2013-07-05 04:45:00,56.2,46.0,28.94,WSW,247,0.0,-999.0,68,0.00,,,0.00,Rainwise IP-100,2013-07-05 11:45:00,
2013-07-05 04:50:00,56.1,46.0,28.94,WSW,247,1.4,-999.0,68,0.00,,,0.00,Rainwise IP-100,2013-07-05 11:50:00,
2013-07-05 04:55:00,56.1,46.0,28.94,WSW,247,0.0,-999.0,68,0.00,,,0.00,Rainwise IP-100,2013-07-05 11:55:00,
2013-07-05 05:00:00,55.9,46.0,28.94,WSW,247,0.0,-999.0,68,0.00,,,0.00,Rainwise IP-100,2013-07-05 12:00:00,
2013-07-05 05:05:00,55.6,46.0,28.95,WSW,247,0.0,-999.0,68,0.00,,,0.00,Rainwise IP-100,2013-07-05 12:05:00,
2013-07-05 05:10:00,55.4,45.0,28.94,WSW,247,0.0,-999.0,68,0.00,,,0.00,Rainwise IP-100,2013-07-05 12:10:00,
2013-07-05 05:15:00,55.1,45.0,28.95,WSW,247,0.0,-999.0,69,0.00,,,0.00,Rainwise IP-100,2013-07-05 12:15:00,
2013-07-05 05:20:00,54.7,45.0,28.94,WSW,247,1.2,-999.0,70,0.00,,,0.00,Rainwise IP-100,2013-07-05 12:20:00,
2013-07-05 05:25:00,54.5,46.0,28.94,WSW,247,0.0,-999.0,71,0.00,,,0.00,Rainwise IP-100,2013-07-05 12:25:00,
2013-07-05 05:30:00,54.7,46.0,28.94,WSW,247,0.0,-999.0,71,0.00,,,0.00,Rainwise IP-100,2013-07-05 12:30:00,
2013-07-05 05:35:00,54.8,46.0,28.95,WSW,247,0.0,-999.0,71,0.00,,,0.00,Rainwise IP-100,2013-07-05 12:35:00,
2013-07-05 05:40:00,54.7,46.0,28.94,WSW,247,0.0,-999.0,71,0.00,,,0.00,Rainwise IP-100,2013-07-05 12:40:00,
2013-07-05 05:45:00,54.4,46.0,28.95,WSW,247,0.0,-999.0,71,0.00,,,0.00,Rainwise IP-100,2013-07-05 12:45:00,
2013-07-05 05:50:00,54.3,46.0,28.95,WSW,247,0.0,-999.0,71,0.00,,,0.00,Rainwise IP-100,2013-07-05 12:50:00,
2013-07-05 05:55:00,54.1,45.0,28.95,WSW,247,0.0,-999.0,72,0.00,,,0.00,Rainwise IP-100,2013-07-05 12:55:00,
2013-07-05 06:00:00,54.0,45.0,28.95,WSW,247,0.0,-999.0,72,0.00,,,0.00,Rainwise IP-100,2013-07-05 13:00:00,
2013-07-05 06:05:00,54.0,45.0,28.96,WSW,247,0.0,-999.0,72,0.00,,,0.00,Rainwise IP-100,2013-07-05 13:05:00,
2013-07-05 06:10:00,53.8,45.0,28.96,WSW,247,0.0,-999.0,72,0.00,,,0.00,Rainwise IP-100,2013-07-05 13:10:00,
2013-07-05 06:15:00,53.6,45.0,28.96,WSW,247,0.0,-999.0,73,0.00,,,0.00,Rainwise IP-100,2013-07-05 13:15:00,
2013-07-05 06:20:00,53.6,45.0,28.96,WSW,247,0.0,-999.0,73,0.00,,,0.00,Rainwise IP-100,2013-07-05 13:20:00,
2013-07-05 06:25:00,53.7,45.0,28.97,WSW,247,0.0,-999.0,73,0.00,,,0.00,Rainwise IP-100,2013-07-05 13:25:00,
2013-07-05 06:30:00,54.0,46.0,28.97,WSW,247,0.0,-999.0,73,0.00,,,0.00,Rainwise IP-100,2013-07-05 13:30:00,
2013-07-05 06:35:00,54.1,46.0,28.96,WSW,247,1.2,-999.0,73,0.00,,,0.00,Rainwise IP-100,2013-07-05 13:35:00,
2013-07-05 06:40:00,54.2,46.0,28.96,WSW,247,1.4,-999.0,73,0.00,,,0.00,Rainwise IP-100,2013-07-05 13:40:00,
2013-07-05 06:45:00,54.4,46.0,28.97,WSW,247,0.0,-999.0,73,0.00,,,0.00,Rainwise IP-100,2013-07-05 13:45:00,
2013-07-05 06:50:00,55.1,47.0,28.97,WSW,247,0.0,-999.0,72,0.00,,,0.00,Rainwise IP-100,2013-07-05 13:50:00,
2013-07-05 06:55:00,55.7,47.0,28.97,WSW,247,0.0,-999.0,71,0.00,,,0.00,Rainwise IP-100,2013-07-05 13:55:00,
2013-07-05 07:00:00,56.0,47.0,28.97,WSW,247,0.0,-999.0,70,0.00,,,0.00,Rainwise IP-100,2013-07-05 14:00:00,
2013-07-05 07:05:00,56.7,47.0,28.97,WSW,247,0.0,-999.0,69,0.00,,,0.00,Rainwise IP-100,2013-07-05 14:05:00,
2013-07-05 07:10:00,57.3,47.5,28.97,WSW,247,0.0,-999.0,69,0.00,,,0.00,Rainwise IP-100,2013-07-05 14:10:00,
2013-07-05 07:15:00,58.1,48.0,28.98,WSW,247,0.0,-999.0,69,0.00,,,0.00,Rainwise IP-100,2013-07-05 14:15:00,
2013-07-05 07:20:00,60.5,49.0,28.97,ESE,112,1.9,-999.0,66,0.00,,,0.00,Rainwise IP-100,2013-07-05 14:20:00,
2013-07-05 07:25:00,62.6,49.0,28.98,ESE,112,2.8,-999.0,61,0.00,,,0.00,Rainwise IP-100,2013-07-05 14:25:00,
2013-07-05 07:30:00,63.0,48.0,28.98,ESE,112,1.4,-999.0,58,0.00,,,0.00,Rainwise IP-100,2013-07-05 14:30:00,
2013-07-05 07:35:00,63.3,48.0,28.98,SSE,157,2.1,-999.0,57,0.00,,,0.00,Rainwise IP-100,2013-07-05 14:35:00,
2013-07-05 07:40:00,63.9,48.0,28.99,ESE,112,2.3,-999.0,56,0.00,,,0.00,Rainwise IP-100,2013-07-05 14:40:00,
2013-07-05 07:45:00,64.2,47.0,28.98,ESE,112,1.2,-999.0,54,0.00,,,0.00,Rainwise IP-100,2013-07-05 14:45:00,
2013-07-05 07:50:00,64.3,47.5,28.98,East,90,0.0,-999.0,54,0.00,,,0.00,Rainwise IP-100,2013-07-05 14:50:00,
2013-07-05 07:55:00,65.0,47.5,28.99,ESE,112,1.4,-999.0,53,0.00,,,0.00,Rainwise IP-100,2013-07-05 14:55:00,
2013-07-05 08:00:00,65.9,48.0,28.98,ESE,112,0.0,-999.0,53,0.00,,,0.00,Rainwise IP-100,2013-07-05 15:00:00,
2013-07-05 08:05:00,67.2,49.0,28.99,ENE,67,3.3,-999.0,52,0.00,,,0.00,Rainwise IP-100,2013-07-05 15:05:00,
2013-07-05 08:10:00,67.8,49.0,28.99,ENE,67,3.7,-999.0,50,0.00,,,0.00,Rainwise IP-100,2013-07-05 15:10:00,
2013-07-05 08:15:00,67.6,47.5,28.99,SSE,157,0.0,-999.0,49,0.00,,,0.00,Rainwise IP-100,2013-07-05 15:15:00,
2013-07-05 08:20:00,68.2,47.5,28.99,SSE,157,4.7,-999.0,48,0.00,,,0.00,Rainwise IP-100,2013-07-05 15:20:00,
2013-07-05 08:25:00,68.9,47.5,28.99,SSE,157,2.3,-999.0,47,0.00,,,0.00,Rainwise IP-100,2013-07-05 15:25:00,
2013-07-05 08:30:00,69.1,47.5,28.98,East,90,1.9,-999.0,46,0.00,,,0.00,Rainwise IP-100,2013-07-05 15:30:00,
2013-07-05 08:35:00,69.9,48.0,28.99,ESE,112,1.6,-999.0,46,0.00,,,0.00,Rainwise IP-100,2013-07-05 15:35:00,
2013-07-05 08:40:00,71.0,48.0,28.99,SSE,157,1.4,-999.0,45,0.00,,,0.00,Rainwise IP-100,2013-07-05 15:40:00,
2013-07-05 08:45:00,71.8,48.0,28.98,East,90,0.0,-999.0,44,0.00,,,0.00,Rainwise IP-100,2013-07-05 15:45:00,
2013-07-05 08:50:00,72.4,48.0,28.99,SSE,157,3.3,-999.0,43,0.00,,,0.00,Rainwise IP-100,2013-07-05 15:50:00,
2013-07-05 08:55:00,72.7,48.0,28.98,ENE,67,1.2,-999.0,42,0.00,,,0.00,Rainwise IP-100,2013-07-05 15:55:00,
2013-07-05 09:00:00,72.5,47.5,28.99,East,90,2.6,-999.0,41,0.00,,,0.00,Rainwise IP-100,2013-07-05 16:00:00,
2013-07-05 09:05:00,72.5,47.5,28.98,SSE,157,1.2,-999.0,41,0.00,,,0.00,Rainwise IP-100,2013-07-05 16:05:00,
2013-07-05 09:10:00,72.5,47.5,28.99,ESE,112,0.0,-999.0,41,0.00,,,0.00,Rainwise IP-100,2013-07-05 16:10:00,
2013-07-05 09:15:00,72.5,47.5,28.99,East,90,2.3,-999.0,41,0.00,,,0.00,Rainwise IP-100,2013-07-05 16:15:00,
2013-07-05 09:20:00,72.8,47.5,28.99,East,90,3.0,-999.0,41,0.00,,,0.00,Rainwise IP-100,2013-07-05 16:20:00,
2013-07-05 09:24:00,72.9,48.0,28.98,ENE,67,4.0,-999.0,41,0.00,,,0.00,Rainwise IP-100,2013-07-05 16:24:00,
2013-07-05 09:29:00,72.9,48.0,28.99,SSW,202,1.4,-999.0,42,0.00,,,0.00,Rainwise IP-100,2013-07-05 16:29:00,
2013-07-05 09:34:00,73.4,48.0,28.98,ESE,112,0.0,-999.0,41,0.00,,,0.00,Rainwise IP-100,2013-07-05 16:34:00,
2013-07-05 09:39:00,73.8,48.0,28.99,ESE,112,2.8,-999.0,41,0.00,,,0.00,Rainwise IP-100,2013-07-05 16:39:00,
2013-07-05 09:44:00,74.4,49.0,28.98,SSW,202,1.6,-999.0,41,0.00,,,0.00,Rainwise IP-100,2013-07-05 16:44:00,
2013-07-05 09:49:00,75.3,50.0,28.98,SSE,157,0.0,-999.0,40,0.00,,,0.00,Rainwise IP-100,2013-07-05 16:49:00,
2013-07-05 09:54:00,75.4,50.0,28.98,SE,135,2.6,-999.0,40,0.00,,,0.00,Rainwise IP-100,2013-07-05 16:54:00,
2013-07-05 09:59:00,75.6,50.0,28.98,ENE,67,6.1,-999.0,40,0.00,,,0.00,Rainwise IP-100,2013-07-05 16:59:00,
2013-07-05 10:04:00,76.4,50.5,28.98,East,90,1.2,-999.0,40,0.00,,,0.00,Rainwise IP-100,2013-07-05 17:04:00,
2013-07-05 10:09:00,76.4,50.5,28.98,NE,45,0.0,-999.0,40,0.00,,,0.00,Rainwise IP-100,2013-07-05 17:09:00,
2013-07-05 10:14:00,76.8,50.0,28.98,NE,45,3.0,-999.0,39,0.00,,,0.00,Rainwise IP-100,2013-07-05 17:14:00,
2013-07-05 10:19:00,77.8,50.5,28.98,East,90,5.8,-999.0,39,0.00,,,0.00,Rainwise IP-100,2013-07-05 17:19:00,
2013-07-05 10:24:00,77.2,50.0,28.98,ESE,112,4.4,-999.0,38,0.00,,,0.00,Rainwise IP-100,2013-07-05 17:24:00,
2013-07-05 10:29:00,77.0,50.0,28.98,NNE,22,4.7,-999.0,38,0.00,,,0.00,Rainwise IP-100,2013-07-05 17:29:00,
2013-07-05 10:34:00,78.0,50.5,28.98,SSE,157,2.6,-999.0,38,0.00,,,0.00,Rainwise IP-100,2013-07-05 17:34:00,
2013-07-05 10:39:00,79.0,50.5,28.98,SSE,157,2.3,-999.0,37,0.00,,,0.00,Rainwise IP-100,2013-07-05 17:39:00,
2013-07-05 10:43:00,79.6,51.0,28.98,ESE,112,1.2,-999.0,37,0.00,,,0.00,Rainwise IP-100,2013-07-05 17:43:00,
2013-07-05 10:48:00,79.6,51.0,28.98,ESE,112,1.9,-999.0,37,0.00,,,0.00,Rainwise IP-100,2013-07-05 17:48:00,
2013-07-05 10:53:00,79.6,51.0,28.98,ESE,112,0.0,-999.0,37,0.00,,,0.00,Rainwise IP-100,2013-07-05 17:53:00,
2013-07-05 10:58:00,80.2,50.5,28.98,East,90,4.7,-999.0,36,0.00,,,0.00,Rainwise IP-100,2013-07-05 17:58:00,
2013-07-05 11:03:00,80.0,50.5,28.97,SSE,157,1.6,-999.0,36,0.00,,,0.00,Rainwise IP-100,2013-07-05 18:03:00,
2013-07-05 11:08:00,79.9,51.0,28.98,ENE,67,6.1,-999.0,37,0.00,,,0.00,Rainwise IP-100,2013-07-05 18:08:00,
2013-07-05 11:13:00,80.4,52.0,28.98,ENE,67,3.0,-999.0,37,0.00,,,0.00,Rainwise IP-100,2013-07-05 18:13:00,
2013-07-05 11:18:00,80.8,52.0,28.98,ESE,112,2.1,-999.0,37,0.00,,,0.00,Rainwise IP-100,2013-07-05 18:18:00,
2013-07-05 11:23:00,82.3,53.0,28.97,NE,45,3.7,-999.0,36,0.00,,,0.00,Rainwise IP-100,2013-07-05 18:23:00,
2013-07-05 11:28:00,82.9,53.0,28.98,ENE,67,3.3,-999.0,35,0.00,,,0.00,Rainwise IP-100,2013-07-05 18:28:00,
2013-07-05 11:33:00,82.4,52.0,28.97,ESE,112,1.6,-999.0,35,0.00,,,0.00,Rainwise IP-100,2013-07-05 18:33:00,
2013-07-05 11:38:00,82.3,52.0,28.97,ENE,67,8.4,-999.0,35,0.00,,,0.00,Rainwise IP-100,2013-07-05 18:38:00,
2013-07-05 11:43:00,81.9,52.0,28.97,ESE,112,4.9,-999.0,35,0.00,,,0.00,Rainwise IP-100,2013-07-05 18:43:00,
2013-07-05 11:48:00,82.1,53.0,28.97,ESE,112,8.4,-999.0,36,0.00,,,0.00,Rainwise IP-100,2013-07-05 18:48:00,
2013-07-05 11:53:00,83.1,53.5,28.97,ESE,112,2.8,-999.0,36,0.00,,,0.00,Rainwise IP-100,2013-07-05 18:53:00,
2013-07-05 11:58:00,84.0,53.5,28.97,ENE,67,3.5,-999.0,35,0.00,,,0.00,Rainwise IP-100,2013-07-05 18:58:00,
2013-07-05 12:03:00,84.5,53.5,28.97,ESE,112,7.0,-999.0,34,0.00,,,0.00,Rainwise IP-100,2013-07-05 19:03:00,
2013-07-05 12:08:00,84.1,53.0,28.97,East,90,5.4,-999.0,34,0.00,,,0.00,Rainwise IP-100,2013-07-05 19:08:00,
2013-07-05 12:13:00,83.5,52.0,28.97,East,90,4.9,-999.0,34,0.00,,,0.00,Rainwise IP-100,2013-07-05 19:13:00,
2013-07-05 12:18:00,84.3,53.0,28.97,ESE,112,1.9,-999.0,34,0.00,,,0.00,Rainwise IP-100,2013-07-05 19:18:00,
2013-07-05 12:23:00,85.4,53.5,28.97,East,90,2.3,-999.0,33,0.00,,,0.00,Rainwise IP-100,2013-07-05 19:23:00,
2013-07-05 12:28:00,85.7,53.5,28.97,ESE,112,0.0,-999.0,33,0.00,,,0.00,Rainwise IP-100,2013-07-05 19:28:00,
2013-07-05 12:33:00,86.3,54.0,28.97,ESE,112,5.1,-999.0,33,0.00,,,0.00,Rainwise IP-100,2013-07-05 19:33:00,
2013-07-05 12:38:00,86.6,54.0,28.96,East,90,6.3,-999.0,33,0.00,,,0.00,Rainwise IP-100,2013-07-05 19:38:00,
2013-07-05 12:43:00,86.2,54.0,28.96,SE,135,5.4,-999.0,33,0.00,,,0.00,Rainwise IP-100,2013-07-05 19:43:00,
2013-07-05 12:48:00,86.7,54.0,28.96,ENE,67,7.0,-999.0,33,0.00,,,0.00,Rainwise IP-100,2013-07-05 19:48:00,
2013-07-05 12:53:00,87.0,53.5,28.96,ESE,112,3.0,-999.0,32,0.00,,,0.00,Rainwise IP-100,2013-07-05 19:53:00,
2013-07-05 12:58:00,87.5,54.0,28.96,ENE,67,3.0,-999.0,32,0.00,,,0.00,Rainwise IP-100,2013-07-05 19:58:00,
2013-07-05 13:03:00,88.5,54.0,28.96,ENE,67,4.9,-999.0,31,0.00,,,0.00,Rainwise IP-100,2013-07-05 20:03:00,
2013-07-05 13:08:00,88.9,53.5,28.96,East,90,3.7,-999.0,30,0.00,,,0.00,Rainwise IP-100,2013-07-05 20:08:00,
2013-07-05 13:13:00,89.4,54.0,28.96,SSE,157,6.1,-999.0,30,0.00,,,0.00,Rainwise IP-100,2013-07-05 20:13:00,
2013-07-05 13:18:00,90.1,54.5,28.96,WSW,247,5.8,-999.0,30,0.00,,,0.00,Rainwise IP-100,2013-07-05 20:18:00,
2013-07-05 13:23:00,90.6,55.0,28.96,SSE,157,6.8,-999.0,30,0.00,,,0.00,Rainwise IP-100,2013-07-05 20:23:00,
2013-07-05 13:28:00,90.5,54.0,28.96,SSE,157,4.4,-999.0,29,0.00,,,0.00,Rainwise IP-100,2013-07-05 20:28:00,
2013-07-05 13:33:00,89.6,54.0,28.96,SSE,157,3.3,-999.0,30,0.00,,,0.00,Rainwise IP-100,2013-07-05 20:33:00,
2013-07-05 13:38:00,89.8,54.0,28.95,SSW,202,4.7,-999.0,30,0.00,,,0.00,Rainwise IP-100,2013-07-05 20:38:00,
2013-07-05 13:43:00,90.8,55.0,28.95,SSE,157,3.3,-999.0,30,0.00,,,0.00,Rainwise IP-100,2013-07-05 20:43:00,
2013-07-05 13:48:00,91.0,55.0,28.95,SSW,202,6.1,-999.0,30,0.00,,,0.00,Rainwise IP-100,2013-07-05 20:48:00,
2013-07-05 13:53:00,91.0,54.5,28.95,WSW,247,4.7,-999.0,29,0.00,,,0.00,Rainwise IP-100,2013-07-05 20:53:00,
2013-07-05 13:58:00,91.1,54.5,28.95,SSW,202,2.1,-999.0,29,0.00,,,0.00,Rainwise IP-100,2013-07-05 20:58:00,
2013-07-05 14:03:00,91.3,54.5,28.95,SSE,157,7.2,-999.0,29,0.00,,,0.00,Rainwise IP-100,2013-07-05 21:03:00,
2013-07-05 14:08:00,91.4,54.5,28.95,WSW,247,6.3,-999.0,29,0.00,,,0.00,Rainwise IP-100,2013-07-05 21:08:00,
2013-07-05 14:13:00,91.5,56.0,28.95,SSW,202,4.7,-999.0,30,0.00,,,0.00,Rainwise IP-100,2013-07-05 21:13:00,
2013-07-05 14:18:00,91.1,55.0,28.94,SSW,202,2.3,-999.0,30,0.00,,,0.00,Rainwise IP-100,2013-07-05 21:18:00,
2013-07-05 14:23:00,90.8,55.0,28.95,WSW,247,3.3,-999.0,30,0.00,,,0.00,Rainwise IP-100,2013-07-05 21:23:00,
2013-07-05 14:28:00,91.1,56.5,28.94,ESE,112,5.8,-999.0,31,0.00,,,0.00,Rainwise IP-100,2013-07-05 21:28:00,
2013-07-05 14:33:00,90.6,56.0,28.94,SSE,157,4.9,-999.0,31,0.00,,,0.00,Rainwise IP-100,2013-07-05 21:33:00,
2013-07-05 14:38:00,90.4,56.0,28.94,SE,135,3.3,-999.0,31,0.00,,,0.00,Rainwise IP-100,2013-07-05 21:38:00,
2013-07-05 14:43:00,90.3,56.5,28.94,SSE,157,2.6,-999.0,32,0.00,,,0.00,Rainwise IP-100,2013-07-05 21:43:00,
2013-07-05 14:48:00,90.2,55.0,28.94,SSE,157,6.1,-999.0,31,0.00,,,0.00,Rainwise IP-100,2013-07-05 21:48:00,
2013-07-05 14:53:00,90.5,56.0,28.94,SSE,157,5.1,-999.0,31,0.00,,,0.00,Rainwise IP-100,2013-07-05 21:53:00,
2013-07-05 14:58:00,90.6,56.0,28.94,SSE,157,8.2,-999.0,31,0.00,,,0.00,Rainwise IP-100,2013-07-05 21:58:00,
2013-07-05 15:03:00,90.3,56.0,28.94,SSE,157,5.6,-999.0,31,0.00,,,0.00,Rainwise IP-100,2013-07-05 22:03:00,
2013-07-05 15:08:00,90.1,55.0,28.94,SSW,202,8.9,-999.0,31,0.00,,,0.00,Rainwise IP-100,2013-07-05 22:08:00,
2013-07-05 15:13:00,89.9,56.0,28.94,SSE,157,1.4,-999.0,32,0.00,,,0.00,Rainwise IP-100,2013-07-05 22:13:00,
2013-07-05 15:18:00,90.2,56.5,28.94,SSE,157,9.3,-999.0,32,0.00,,,0.00,Rainwise IP-100,2013-07-05 22:18:00,
2013-07-05 15:23:00,90.9,56.5,28.94,SSW,202,2.8,-999.0,31,0.00,,,0.00,Rainwise IP-100,2013-07-05 22:23:00,
2013-07-05 15:28:00,91.0,56.5,28.93,SSE,157,6.1,-999.0,31,0.00,,,0.00,Rainwise IP-100,2013-07-05 22:28:00,
2013-07-05 15:33:00,91.2,56.5,28.94,South,180,3.3,-999.0,31,0.00,,,0.00,Rainwise IP-100,2013-07-05 22:33:00,
2013-07-05 15:38:00,91.1,56.5,28.93,SSE,157,8.4,-999.0,31,0.00,,,0.00,Rainwise IP-100,2013-07-05 22:38:00,
2013-07-05 15:43:00,91.3,56.5,28.93,South,180,8.6,-999.0,31,0.00,,,0.00,Rainwise IP-100,2013-07-05 22:43:00,
2013-07-05 15:48:00,91.5,56.5,28.93,SSE,157,2.6,-999.0,31,0.00,,,0.00,Rainwise IP-100,2013-07-05 22:48:00,
2013-07-05 15:53:00,91.2,56.5,28.93,SSW,202,3.0,-999.0,31,0.00,,,0.00,Rainwise IP-100,2013-07-05 22:53:00,
2013-07-05 15:58:00,91.2,56.5,28.93,WSW,247,3.5,-999.0,31,0.00,,,0.00,Rainwise IP-100,2013-07-05 22:58:00,
2013-07-05 16:03:00,91.5,56.5,28.93,SSE,157,7.5,-999.0,31,0.00,,,0.00,Rainwise IP-100,2013-07-05 23:03:00,
2013-07-05 16:08:00,91.6,56.5,28.93,SSW,202,4.9,-999.0,31,0.00,,,0.00,Rainwise IP-100,2013-07-05 23:08:00,
2013-07-05 16:13:00,91.4,56.5,28.92,SSW,202,3.7,-999.0,31,0.00,,,0.00,Rainwise IP-100,2013-07-05 23:13:00,
2013-07-05 16:18:00,91.6,56.5,28.92,SSW,202,3.5,-999.0,31,0.00,,,0.00,Rainwise IP-100,2013-07-05 23:18:00,
2013-07-05 16:23:00,91.7,57.0,28.92,SSE,157,6.5,-999.0,31,0.00,,,0.00,Rainwise IP-100,2013-07-05 23:23:00,
2013-07-05 16:28:00,90.9,56.5,28.92,WSW,247,4.9,-999.0,31,0.00,,,0.00,Rainwise IP-100,2013-07-05 23:28:00,
2013-07-05 16:33:00,90.2,56.5,28.92,SSE,157,4.9,-999.0,32,0.00,,,0.00,Rainwise IP-100,2013-07-05 23:33:00,
2013-07-05 16:38:00,89.9,57.0,28.92,SSE,157,5.8,-999.0,33,0.00,,,0.00,Rainwise IP-100,2013-07-05 23:38:00,
2013-07-05 16:43:00,89.5,56.5,28.92,SSW,202,3.7,-999.0,33,0.00,,,0.00,Rainwise IP-100,2013-07-05 23:43:00,
2013-07-05 16:48:00,89.7,57.0,28.92,SSE,157,7.7,-999.0,33,0.00,,,0.00,Rainwise IP-100,2013-07-05 23:48:00,
2013-07-05 16:53:00,89.3,56.5,28.92,SSW,202,2.3,-999.0,33,0.00,,,0.00,Rainwise IP-100,2013-07-05 23:53:00,
2013-07-05 16:58:00,88.6,56.5,28.92,SE,135,8.4,-999.0,34,0.00,,,0.00,Rainwise IP-100,2013-07-05 23:58:00,
2013-07-05 17:03:00,88.6,56.5,28.92,South,180,7.0,-999.0,34,0.00,,,0.00,Rainwise IP-100,2013-07-06 00:03:00,
2013-07-05 17:08:00,88.6,56.5,28.92,SSE,157,7.9,-999.0,34,0.00,,,0.00,Rainwise IP-100,2013-07-06 00:08:00,
2013-07-05 17:13:00,88.3,56.5,28.92,SSE,157,5.8,-999.0,34,0.00,,,0.00,Rainwise IP-100,2013-07-06 00:13:00,
2013-07-05 17:18:00,88.5,56.5,28.92,SSE,157,8.4,-999.0,34,0.00,,,0.00,Rainwise IP-100,2013-07-06 00:18:00,
2013-07-05 17:23:00,89.1,57.0,28.92,WSW,247,2.6,-999.0,34,0.00,,,0.00,Rainwise IP-100,2013-07-06 00:23:00,
2013-07-05 17:28:00,89.1,57.0,28.92,SSE,157,7.0,-999.0,34,0.00,,,0.00,Rainwise IP-100,2013-07-06 00:28:00,
2013-07-05 17:33:00,89.4,57.5,28.92,SSE,157,2.6,-999.0,34,0.00,,,0.00,Rainwise IP-100,2013-07-06 00:33:00,
2013-07-05 17:38:00,89.5,56.5,28.92,SSE,157,3.3,-999.0,33,0.00,,,0.00,Rainwise IP-100,2013-07-06 00:38:00,
2013-07-05 17:43:00,89.1,56.5,28.91,SSW,202,4.2,-999.0,33,0.00,,,0.00,Rainwise IP-100,2013-07-06 00:43:00,
2013-07-05 17:48:00,89.2,57.0,28.92,SSW,202,2.8,-999.0,34,0.00,,,0.00,Rainwise IP-100,2013-07-06 00:48:00,
2013-07-05 17:53:00,89.4,57.5,28.92,SW,225,6.5,-999.0,34,0.00,,,0.00,Rainwise IP-100,2013-07-06 00:53:00,
2013-07-05 17:58:00,89.3,57.0,28.91,WSW,247,2.8,-999.0,34,0.00,,,0.00,Rainwise IP-100,2013-07-06 00:58:00,
2013-07-05 18:03:00,89.2,57.0,28.91,WSW,247,4.9,-999.0,34,0.00,,,0.00,Rainwise IP-100,2013-07-06 01:03:00,
2013-07-05 18:08:00,89.0,57.0,28.91,WSW,247,4.9,-999.0,34,0.00,,,0.00,Rainwise IP-100,2013-07-06 01:08:00,
2013-07-05 18:13:00,88.7,57.0,28.91,SSW,202,2.6,-999.0,34,0.00,,,0.00,Rainwise IP-100,2013-07-06 01:13:00,
2013-07-05 18:18:00,88.6,56.5,28.91,SSE,157,5.1,-999.0,34,0.00,,,0.00,Rainwise IP-100,2013-07-06 01:18:00,
2013-07-05 18:23:00,88.6,56.5,28.91,WSW,247,7.0,-999.0,34,0.00,,,0.00,Rainwise IP-100,2013-07-06 01:23:00,
2013-07-05 18:28:00,88.5,56.5,28.91,SSW,202,4.0,-999.0,34,0.00,,,0.00,Rainwise IP-100,2013-07-06 01:28:00,
2013-07-05 18:33:00,88.2,56.5,28.91,SSW,202,0.0,-999.0,34,0.00,,,0.00,Rainwise IP-100,2013-07-06 01:33:00,
2013-07-05 18:38:00,87.7,57.0,28.91,WNW,292,2.1,-999.0,35,0.00,,,0.00,Rainwise IP-100,2013-07-06 01:38:00,
2013-07-05 18:43:00,87.5,56.5,28.91,SSE,157,1.6,-999.0,35,0.00,,,0.00,Rainwise IP-100,2013-07-06 01:43:00,
2013-07-05 18:48:00,87.5,56.5,28.91,SSW,202,3.0,-999.0,35,0.00,,,0.00,Rainwise IP-100,2013-07-06 01:48:00,
2013-07-05 18:53:00,87.2,56.5,28.91,WSW,247,2.1,-999.0,35,0.00,,,0.00,Rainwise IP-100,2013-07-06 01:53:00,
2013-07-05 18:58:00,86.5,56.5,28.91,SSE,157,2.6,-999.0,36,0.00,,,0.00,Rainwise IP-100,2013-07-06 01:58:00,
2013-07-05 19:03:00,85.3,56.0,28.91,SSE,157,0.0,-999.0,37,0.00,,,0.00,Rainwise IP-100,2013-07-06 02:03:00,
2013-07-05 19:08:00,83.9,56.0,28.91,East,90,0.0,-999.0,38,0.00,,,0.00,Rainwise IP-100,2013-07-06 02:08:00,
2013-07-05 19:13:00,83.2,56.0,28.91,ENE,67,3.3,-999.0,39,0.00,,,0.00,Rainwise IP-100,2013-07-06 02:13:00,
2013-07-05 19:18:00,82.8,55.0,28.91,NE,45,2.8,-999.0,39,0.00,,,0.00,Rainwise IP-100,2013-07-06 02:18:00,
2013-07-05 19:23:00,81.8,55.0,28.91,ENE,67,8.4,-999.0,40,0.00,,,0.00,Rainwise IP-100,2013-07-06 02:23:00,
2013-07-05 19:28:00,81.0,55.0,28.92,East,90,7.5,-999.0,41,0.00,,,0.00,Rainwise IP-100,2013-07-06 02:28:00,
2013-07-05 19:33:00,80.1,54.5,28.92,ESE,112,6.5,-999.0,42,0.00,,,0.00,Rainwise IP-100,2013-07-06 02:33:00,
2013-07-05 19:38:00,79.3,55.0,28.92,ESE,112,6.5,-999.0,44,0.00,,,0.00,Rainwise IP-100,2013-07-06 02:38:00,
2013-07-05 19:43:00,78.7,55.0,28.92,ENE,67,3.7,-999.0,44,0.00,,,0.00,Rainwise IP-100,2013-07-06 02:43:00,
2013-07-05 19:48:00,77.9,55.0,28.92,ESE,112,5.1,-999.0,45,0.00,,,0.00,Rainwise IP-100,2013-07-06 02:48:00,
2013-07-05 19:53:00,77.0,54.5,28.92,East,90,4.4,-999.0,46,0.00,,,0.00,Rainwise IP-100,2013-07-06 02:53:00,
2013-07-05 19:58:00,76.4,54.5,28.93,ESE,112,5.6,-999.0,47,0.00,,,0.00,Rainwise IP-100,2013-07-06 02:58:00,
2013-07-05 20:03:00,75.9,54.5,28.93,East,90,2.8,-999.0,48,0.00,,,0.00,Rainwise IP-100,2013-07-06 03:03:00,
2013-07-05 20:08:00,75.3,55.0,28.93,East,90,2.3,-999.0,49,0.00,,,0.00,Rainwise IP-100,2013-07-06 03:08:00,
2013-07-05 20:13:00,74.8,55.0,28.93,ENE,67,3.7,-999.0,50,0.00,,,0.00,Rainwise IP-100,2013-07-06 03:13:00,
2013-07-05 20:18:00,74.4,54.5,28.94,East,90,2.8,-999.0,50,0.00,,,0.00,Rainwise IP-100,2013-07-06 03:18:00,
2013-07-05 20:23:00,73.8,54.5,28.94,ESE,112,0.0,-999.0,51,0.00,,,0.00,Rainwise IP-100,2013-07-06 03:23:00,
2013-07-05 20:28:00,73.3,54.5,28.94,East,90,2.1,-999.0,52,0.00,,,0.00,Rainwise IP-100,2013-07-06 03:28:00,
2013-07-05 20:33:00,72.8,54.5,28.95,East,90,1.2,-999.0,53,0.00,,,0.00,Rainwise IP-100,2013-07-06 03:33:00,
2013-07-05 20:38:00,72.3,54.5,28.95,East,90,5.4,-999.0,54,0.00,,,0.00,Rainwise IP-100,2013-07-06 03:38:00,
2013-07-05 20:43:00,71.9,54.5,28.95,ENE,67,2.8,-999.0,54,0.00,,,0.00,Rainwise IP-100,2013-07-06 03:43:00,
2013-07-05 20:48:00,71.5,54.5,28.95,ESE,112,4.2,-999.0,55,0.00,,,0.00,Rainwise IP-100,2013-07-06 03:48:00,
2013-07-05 20:53:00,71.1,54.0,28.95,SSE,157,2.3,-999.0,55,0.00,,,0.00,Rainwise IP-100,2013-07-06 03:53:00,
2013-07-05 20:58:00,70.7,54.0,28.95,SSW,202,2.1,-999.0,56,0.00,,,0.00,Rainwise IP-100,2013-07-06 03:58:00,
2013-07-05 21:01:00,70.5,54.0,28.96,ESE,112,0.0,-999.0,56,0.00,,,0.00,Rainwise IP-100,2013-07-06 04:01:00,
2013-07-05 21:06:00,70.2,54.0,28.96,ESE,112,0.0,-999.0,57,0.00,,,0.00,Rainwise IP-100,2013-07-06 04:06:00,
2013-07-05 21:11:00,69.8,54.0,28.96,ESE,112,0.0,-999.0,58,0.00,,,0.00,Rainwise IP-100,2013-07-06 04:11:00,
2013-07-05 21:16:00,69.4,54.0,28.96,ESE,112,0.0,-999.0,58,0.00,,,0.00,Rainwise IP-100,2013-07-06 04:16:00,
2013-07-05 21:21:00,69.0,54.0,28.97,ESE,112,0.0,-999.0,59,0.00,,,0.00,Rainwise IP-100,2013-07-06 04:21:00,
2013-07-05 21:26:00,68.6,54.0,28.97,ESE,112,0.0,-999.0,60,0.00,,,0.00,Rainwise IP-100,2013-07-06 04:26:00,
2013-07-05 21:31:00,68.2,54.0,28.97,ESE,112,0.0,-999.0,61,0.00,,,0.00,Rainwise IP-100,2013-07-06 04:31:00,
2013-07-05 21:36:00,67.9,54.0,28.97,East,90,1.9,-999.0,61,0.00,,,0.00,Rainwise IP-100,2013-07-06 04:36:00,
2013-07-05 21:41:00,67.7,54.0,28.97,East,90,1.2,-999.0,62,0.00,,,0.00,Rainwise IP-100,2013-07-06 04:41:00,
2013-07-05 21:46:00,67.5,54.0,28.98,East,90,0.0,-999.0,62,0.00,,,0.00,Rainwise IP-100,2013-07-06 04:46:00,
2013-07-05 21:51:00,67.2,54.0,28.99,East,90,2.3,-999.0,63,0.00,,,0.00,Rainwise IP-100,2013-07-06 04:51:00,
2013-07-05 21:56:00,66.9,54.0,28.98,East,90,0.0,-999.0,63,0.00,,,0.00,Rainwise IP-100,2013-07-06 04:56:00,
2013-07-05 22:01:00,66.6,54.0,28.98,East,90,0.0,-999.0,64,0.00,,,0.00,Rainwise IP-100,2013-07-06 05:01:00,
2013-07-05 22:06:00,66.2,54.0,28.99,East,90,0.0,-999.0,64,0.00,,,0.00,Rainwise IP-100,2013-07-06 05:06:00,
2013-07-05 22:11:00,65.7,53.5,28.99,East,90,0.0,-999.0,65,0.00,,,0.00,Rainwise IP-100,2013-07-06 05:11:00,
2013-07-05 22:16:00,65.3,54.0,28.99,East,90,0.0,-999.0,66,0.00,,,0.00,Rainwise IP-100,2013-07-06 05:16:00,
2013-07-05 22:21:00,65.0,53.5,28.99,East,90,0.0,-999.0,66,0.00,,,0.00,Rainwise IP-100,2013-07-06 05:21:00,
2013-07-05 22:26:00,64.6,53.5,28.99,East,90,0.0,-999.0,67,0.00,,,0.00,Rainwise IP-100,2013-07-06 05:26:00,
2013-07-05 22:31:00,64.2,53.5,28.99,East,90,0.0,-999.0,68,0.00,,,0.00,Rainwise IP-100,2013-07-06 05:31:00,
2013-07-05 22:36:00,63.9,53.5,28.99,East,90,0.0,-999.0,69,0.00,,,0.00,Rainwise IP-100,2013-07-06 05:36:00,
2013-07-05 22:37:00,63.7,53.5,28.99,East,90,0.0,-999.0,69,0.00,,,0.00,Rainwise IP-100,2013-07-06 05:37:00,
2013-07-05 22:42:00,63.5,53.5,29.00,SE,135,0.0,-999.0,70,0.00,,,0.00,Rainwise IP-100,2013-07-06 05:42:00,
2013-07-05 22:47:00,63.3,53.5,28.99,SE,135,0.0,-999.0,70,0.00,,,0.00,Rainwise IP-100,2013-07-06 05:47:00,
2013-07-05 22:52:00,63.2,53.5,28.99,SSE,157,0.0,-999.0,71,0.00,,,0.00,Rainwise IP-100,2013-07-06 05:52:00,
2013-07-05 22:57:00,63.1,53.5,28.99,SSE,157,0.0,-999.0,71,0.00,,,0.00,Rainwise IP-100,2013-07-06 05:57:00,
2013-07-05 23:02:00,62.8,53.5,28.99,SSE,157,0.0,-999.0,71,0.00,,,0.00,Rainwise IP-100,2013-07-06 06:02:00,
2013-07-05 23:07:00,62.5,53.5,28.99,SSE,157,0.0,-999.0,72,0.00,,,0.00,Rainwise IP-100,2013-07-06 06:07:00,
2013-07-05 23:12:00,62.2,53.0,28.99,SSE,157,0.0,-999.0,72,0.00,,,0.00,Rainwise IP-100,2013-07-06 06:12:00,
2013-07-05 23:17:00,61.9,53.5,28.99,SSE,157,0.0,-999.0,73,0.00,,,0.00,Rainwise IP-100,2013-07-06 06:17:00,
2013-07-05 23:22:00,61.5,53.0,29.00,SSE,157,0.0,-999.0,73,0.00,,,0.00,Rainwise IP-100,2013-07-06 06:22:00,
2013-07-05 23:27:00,61.2,53.0,29.00,SSE,157,0.0,-999.0,74,0.00,,,0.00,Rainwise IP-100,2013-07-06 06:27:00,
2013-07-05 23:32:00,60.8,53.5,29.00,SSE,157,0.0,-999.0,75,0.00,,,0.00,Rainwise IP-100,2013-07-06 06:32:00,
2013-07-05 23:37:00,60.5,53.0,28.99,SSE,157,1.2,-999.0,75,0.00,,,0.00,Rainwise IP-100,2013-07-06 06:37:00,
2013-07-05 23:42:00,60.2,53.0,29.00,SSE,157,0.0,-999.0,76,0.00,,,0.00,Rainwise IP-100,2013-07-06 06:42:00,
2013-07-05 23:47:00,59.9,53.0,29.00,SSE,157,0.0,-999.0,76,0.00,,,0.00,Rainwise IP-100,2013-07-06 06:47:00,
2013-07-05 23:52:00,59.7,52.0,29.00,SSE,157,0.0,-999.0,77,0.00,,,0.00,Rainwise IP-100,2013-07-06 06:52:00,
2013-07-05 23:57:00,59.5,52.0,29.00,SSE,157,0.0,-999.0,77,0.00,,,0.00,Rainwise IP-100,2013-07-06 06:57:00,